Home   Weather   Kinshasa   Past weeks

Flag for Congo Dem. Rep. Past Weather in Kinshasa, Congo Dem. Rep. — Yesterday and Last 2 Weeks

77 °F

Scattered clouds.

Feels Like: 79 °F
Forecast: 72 / 92 °F
Wind: 3 mph from West

Location: Brazzaville / Maya-Maya

Current Time: Oct 23, 2016 at 10:45:24 AM

Latest Report: Oct 23, 2016 at 10:00 AM

Visibility: 6 mi

Pressure: 29.92 "Hg

Humidity: 79%

Dew Point: 70 °F

Location of KinshasaLocation

Past Weather in Kinshasa — Graph


Kinshasa Temperature Yesterday

Maximum temperature yesterday: 91 °F (at 4:00 PM)
Minimum temperature yesterday: 73 °F (at 12:00 AM)
Average temperature yesterday: 81 °F

High & Low Weather Summary for the Past Weeks

High97 °F (Oct 11, 4:00 PM)100% (Oct 16, 5:00 AM)32.81 "Hg (Oct 16, 5:00 AM)
Low68 °F (Oct 20, 4:00 AM)37% (Oct 11, 4:00 PM)29.74 "Hg (Oct 12, 4:00 PM)
Average79 °F76%29.91 "Hg
* Reported Oct 8 9:00 AM — Oct 23 9:00 AM, Kinshasa, Weather by CustomWeather, © 2016

Note: Actual official high and low records may vary slightly from our data, if they occured in-between our weather recording intervals... More about our weather records


Kinshasa Weather History for the Previous 24 Hours

Scroll right to see more
Time TempWeatherWind HumidityBarometerVisibility
9:00 AM
Sun, Oct 23
77 °FPassing clouds.3 mph79%29.92 "Hg6 mi
8:00 AM77 °FClear.3 mph79%29.92 "Hg6 mi
7:00 AM77 °FClear.3 mph79%29.92 "Hg6 mi
6:00 AM77 °FClear.3 mph79%29.92 "Hg6 mi
5:00 AM77 °FClear.3 mph79%29.92 "Hg5 mi
4:00 AM77 °FClear.3 mph79%29.92 "Hg5 mi
3:00 AM77 °FPassing clouds.3 mph79%29.92 "Hg5 mi
2:00 AM77 °FPassing clouds.3 mph79%29.92 "Hg5 mi
1:00 AM77 °FPassing clouds.6 mph79%29.92 "Hg6 mi
12:00 AM81 °FPassing clouds.3 mph74%29.95 "Hg6 mi
11:00 PM
Sat, Oct 22
81 °FPassing clouds.5 mph74%29.92 "Hg6 mi
10:00 PM81 °FThunderstorms. Passing clouds.5 mph74%29.92 "Hg6 mi
9:00 PM82 °FThunderstorms. Passing clouds.5 mph70%29.92 "Hg5 mi
8:00 PM84 °FThunderstorms. Passing clouds.No wind66%29.89 "HgN/A
7:00 PM86 °FPassing clouds.No wind62%29.86 "HgN/A
6:00 PM88 °FPassing clouds.5 mph55%29.83 "HgN/A
5:00 PM90 °FPassing clouds.8 mph52%29.80 "HgN/A
4:00 PM91 °FScattered clouds.5 mph49%29.83 "HgN/A
3:00 PM90 °FScattered clouds.5 mph52%29.83 "HgN/A
2:00 PM90 °FScattered clouds.6 mph52%29.86 "HgN/A
1:00 PM88 °FPartly sunny.3 mph59%29.89 "HgN/A
12:00 PM86 °FPartly sunny.6 mph59%29.95 "HgN/A
11:00 AM86 °FScattered clouds.8 mph59%29.98 "HgN/A
10:00 AM82 °FScattered clouds.6 mph70%29.98 "Hg6 mi
Weather by CustomWeather, © 2016

See weather overviewHow to use our weather pages